TimePDT,TemperatureF,Dew PointF,Humidity,Sea Level PressureIn,VisibilityMPH,Wind Direction,Wind SpeedMPH,Gust SpeedMPH,PrecipitationIn,Events,Conditions,WindDirDegrees,DateUTC
12:53 AM,42.1,30.0,62,29.98,10.0,SW,10.4,-,N/A,,Clear,230,2013-10-29 07:53:00
1:53 AM,41.0,30.0,65,29.99,10.0,SW,11.5,-,N/A,,Clear,230,2013-10-29 08:53:00
2:53 AM,41.0,28.9,62,29.98,10.0,WSW,10.4,-,N/A,,Clear,240,2013-10-29 09:53:00
3:53 AM,41.0,28.9,62,29.98,10.0,SW,9.2,-,N/A,,Clear,230,2013-10-29 10:53:00
4:53 AM,42.1,28.9,60,29.97,10.0,WSW,13.8,-,N/A,,Clear,240,2013-10-29 11:53:00
5:53 AM,42.1,28.9,60,29.99,10.0,West,13.8,-,N/A,,Clear,260,2013-10-29 12:53:00
6:53 AM,41.0,28.9,62,29.99,10.0,SW,11.5,-,N/A,,Clear,230,2013-10-29 13:53:00
7:53 AM,39.9,28.9,65,29.99,10.0,WSW,8.1,-,N/A,,Clear,240,2013-10-29 14:53:00
8:53 AM,42.1,28.9,60,30.01,10.0,West,8.1,-,N/A,,Clear,270,2013-10-29 15:53:00
9:53 AM,46.9,30.9,54,30.01,10.0,West,5.8,-,N/A,,Clear,270,2013-10-29 16:53:00
10:53 AM,50.0,30.9,48,30.02,10.0,SW,4.6,-,N/A,,Clear,230,2013-10-29 17:53:00
11:53 AM,52.0,34.0,50,30.02,10.0,East,4.6,-,N/A,,Clear,90,2013-10-29 18:53:00
12:53 PM,51.1,37.9,61,30.02,10.0,NE,3.5,-,N/A,,Clear,50,2013-10-29 19:53:00
1:53 PM,51.1,41.0,68,30.01,10.0,WNW,3.5,-,N/A,,Clear,300,2013-10-29 20:53:00
2:53 PM,54.0,34.0,47,30.00,10.0,NNE,3.5,-,N/A,,Clear,20,2013-10-29 21:53:00
3:53 PM,53.1,35.1,50,29.99,10.0,Calm,Calm,-,N/A,,Clear,0,2013-10-29 22:53:00
4:53 PM,55.0,35.1,47,29.99,10.0,Calm,Calm,-,N/A,,Clear,0,2013-10-29 23:53:00
5:53 PM,46.9,37.9,71,29.99,10.0,SW,3.5,-,N/A,,Clear,220,2013-10-30 00:53:00
6:53 PM,43.0,36.0,76,30.01,10.0,SW,5.8,-,N/A,,Clear,220,2013-10-30 01:53:00
7:53 PM,43.0,36.0,76,30.02,10.0,WSW,6.9,-,N/A,,Clear,240,2013-10-30 02:53:00
8:53 PM,44.1,36.0,73,30.02,10.0,SW,6.9,-,N/A,,Clear,230,2013-10-30 03:53:00
9:53 PM,42.1,35.1,76,30.02,10.0,SW,5.8,-,N/A,,Clear,220,2013-10-30 04:53:00
10:53 PM,41.0,34.0,76,30.02,10.0,SSW,3.5,-,N/A,,Clear,210,2013-10-30 05:53:00
11:53 PM,39.9,34.0,79,30.03,10.0,WSW,8.1,-,N/A,,Clear,250,2013-10-30 06:53:00